Location: Newark
(49.2191°N, 12.6671°E)
Time: 13:33:34
(UTC+00:00)

Transit 2A - Pass Details

Date: 26 January 2020
Orbit: 599 x 959 km, 66.7° (Epoch: 28 February)

Event Time Altitude Azimuth Distance (km) Brightness Sun altitude
Exits shadow 04:24:19 22° 199° (SSW) 1,565 7.4 -23.4°
Drops below altitude 10° 04:26:37 10° 182° (S) 2,301 8.5 -23.1°
Sets 04:29:19 0° 173° (S) 3,290 9.4 -22.6°
